Regional Weather Roundup
Issued by NWS

Home | Current Version | Previous Version | Text Only | Print | Product List | Glossary On
Versions: 1 2 3 4 5 6 7 8 9 10 11 12 13 14 15 16 17 18 19 20 21 22 23 24 25 26 27 28 29 30 31 32 33 34 35 36 37 38 39 40 41 42 43 44 45 46 47 48 49 50
179
ASUS44 KJAN 310410
RWRMS

MISSISSIPPI HOURLY WEATHER ROUNDUP
NATIONAL WEATHER SERVICE JACKSON MS
1100 PM CDT MON MAY 30 2016

NOTE: "FAIR: INDICATES FEW OR NO CLOUDS BELOW 12,000 FEET WITH NO
SIGNIFICANT WEATHER AND/OR OBSTRUCTIONS TO VISIBILITY.

MSZ001>002-007>008-010>013-018>021-025>028-034>036-310500-
NORTHWEST MISSISSIPPI

CITY           SKY/WX    TMP DP  RH WIND       PRES   REMARKS
BATESVILLE     FAIR      74  70  89 CALM      29.97S
CLARKSDALE     CLOUDY    72  70  94 NW7       29.98F
CLEVELAND      FAIR      71  71 100 N10       29.94F
GREENWOOD      CLOUDY    75  66  73 CALM      29.95S
GREENVILLE     CLOUDY    72  67  84 N10       29.95S
OLIVE BRANCH   CLEAR     75  70  83 CALM      29.98S
OXFORD         FAIR      72  66  83 CALM      29.98F
TUNICA         CLOUDY    68  63  83 W9        30.00F
WINONA         FAIR      74  71  90 CALM      29.95S
$$

MSZ003>006-009-014>017-022>024-029>033-037>039-310500-
NORTHEAST MISSISSIPPI

CITY           SKY/WX    TMP DP  RH WIND       PRES   REMARKS
COLUMBUS AFB   CLOUDY    73  69  87 NE1       29.94F
CORINTH        FAIR      68  64  88 CALM      29.97S
GOLDN TRIANGLE MOCLDY    75  64  69 N6        29.94S
STARKVILLE     FAIR      70  66  88 CALM      29.94S
TUPELO         PTCLDY    75  63  66 N5        29.96F
$$

MSZ040-058-310500-
CENTRAL MISSISSIPPI

CITY           SKY/WX    TMP DP  RH WIND       PRES   REMARKS
JACKSON INTL   CLOUDY    74  68  81 NW3       29.96S
JACKSON HAWKNS MOCLDY    76  64  66 CALM      29.97S
MADISON        FAIR      73  64  73 CALM      29.96F
MERIDIAN KEY   PTCLDY    74  68  81 CALM      29.95S
MERIDIAN NAS   CLEAR     73  67  81 CALM      29.95S
VICKSBURG TVR  PTCLDY    75  68  78 S3        29.96S
VICKSBURG VKS  CLEAR     73  66  78 CALM      29.97S
$$

MSZ059>079-310500-
SOUTH MISSISSIPPI

CITY           SKY/WX    TMP DP  RH WIND       PRES   REMARKS
BROOKHAVEN     FAIR     N/A N/A N/A MISG      29.98S
COLUMBIA       FAIR      70  70 100 CALM      30.01S
HATTIESBURG    CLOUDY    78  69  73 CALM      29.97R
MCCOMB         CLOUDY    69  67  93 CALM      29.97R
NATCHEZ        CLOUDY    72  66  83 S5        29.96F
PINE BELT      CLOUDY    75  64  69 W3        29.98R
$$

MSZ080>082-310500-
COASTAL MISSISSIPPI

CITY           SKY/WX    TMP DP  RH WIND       PRES   REMARKS
BILOXI         CLOUDY    79  74  84 CALM      29.95S
PASCAGOULA     MOCLDY    70  69  97 CALM      29.96R
GULFPORT       CLOUDY    76  74  93 CALM      29.95R
$$




USA.gov is the U.S. government's official web portal to all federal, state and local government web resources and services.